This demonstration page uses our WeatherBlox Daily Observations layout. Learn more.

41.55636, -103.73856

Hourly Observations for August 19, 2019

Temp ( °F °C ) Dew Point ( °F °C ) Humidity (%) Winds ( mph kmh ) Pressure ( in mb ) Visibility ( mi km ) Precip ( " mm )
12:58 am 00:58 Clear 80 26.6 52 11.3 38 38 SE 15 24 29.81 1009 10 16.0934 0 0
1:58 am 01:58 Clear 76 24.5 52 11.2 43 43 S 20 31 29.81 1009 10 16.0934 0 0
2:58 am 02:58 Clear 74 23.4 54 12.4 50 50 S 17 28 29.82 1010 10 16.0934 0 0
3:58 am 03:58 Clear 72 22.4 56 13.4 57 57 Calm 29.85 1011 10 16.0934 0 0
4:58 am 04:58 Clear 72 22.2 56 13.6 58 58 Calm 29.86 1011 10 16.0934 0 0
5:58 am 05:58 Clear 71 21.8 56 13.6 60 60 SW 7 11 29.87 1011 10 16.0934 0 0
6:58 am 06:58 Clear 65 18.5 55 12.8 70 70 SW 9 15 29.88 1012 10 16.0934 0 0
7:58 am 07:58 Clear 67 19.3 53 11.4 60 60 W 3 6 29.87 1012 10 16.0934 0 0
8:58 am 08:58 Clear 62 16.9 55 12.6 76 76 Calm 29.86 1011 10 16.0934 0 0
9:58 am 09:58 Clear 60 15.7 49 9.6 67 67 WNW 3 6 29.87 1012 10 16.0934 0 0
10:58 am 10:58 Clear 60 15.8 48 8.8 63 63 WSW 5 7 29.88 1012 10 16.0934 0 0
11:58 am 11:58 Clear 58 14.6 51 10.6 77 77 WSW 9 15 29.89 1012 10 16.0934 0 0
12:58 pm 12:58 Sunny 58 14.5 44 6.9 61 61 WNW 6 9 29.9 1013 10 16.0934 0 0
1:58 pm 13:58 Sunny 65 18.4 50 10 58 58 W 5 7 29.9 1013 10 16.0934 0 0
2:58 pm 14:58 Sunny 71 21.6 47 8.6 43 43 NW 5 7 29.89 1012 10 16.0934 0 0
3:58 pm 15:58 Sunny 83 28.4 39 4.1 21 21 NW 9 15 29.89 1012 10 16.0934 0 0
4:59 pm 16:59 Sunny 87 30.7 39 3.8 18 18 NW 9 15 29.88 1012 10 16.0934 0 0
7:58 pm 19:58 Sunny 95 35.1 29 -1.7 9 9 N 7 11 29.86 1011 10 16.0934 0 0
8:58 pm 20:58 Sunny 96 35.4 26 -3.2 8 8 WNW 10 17 29.86 1011 10 16.0934 0 0
9:58 pm 21:58 Sunny 96 35.7 27 -2.8 8 8 W 14 22 29.85 1011 10 16.0934 0 0
10:58 pm 22:58 Mostly Sunny 95 34.9 31 -0.4 10 10 Calm 29.85 1011 10 16.0934 0 0
11:58 pm 23:58 Sunny 91 32.7 39 3.8 16 16 E 7 11 29.85 1011 10 16.0934 0 0

Powered by AerisWeather